Radiation Dose at Monitoring Post of Fukushima Daini Nuclear Power Station
Date,Time,MP-1(microSv/h),MP-2(microSv/h),MP-3(microSv/h),MP-4(microSv/h),MP-5(microSv/h),MP-6(microSv/h),MP-7(microSv/h),Wind Direction,Wind Velocity(m/s),Rain
2015/08/01,00:00,0.510,0.298,0.537,0.493,0.466,0.241,0.212,southwest,4.6,No
2015/08/01,00:10,0.508,0.298,0.540,0.491,0.464,0.241,0.211,southwest,3.2,No
2015/08/01,00:20,0.516,0.301,0.545,0.494,0.465,0.240,0.211,west-southwest,1.8,No
2015/08/01,00:30,0.513,0.298,0.542,0.498,0.475,0.242,0.212,west-northwest,1.4,No
2015/08/01,00:40,0.510,0.297,0.538,0.493,0.473,0.242,0.213,west,1.9,No
2015/08/01,00:50,0.507,0.298,0.535,0.492,0.466,0.242,0.210,west-southwest,2.0,No
2015/08/01,01:00,0.517,0.300,0.542,0.490,0.467,0.241,0.212,west-southwest,3.1,No
2015/08/01,01:10,0.515,0.298,0.543,0.496,0.466,0.241,0.212,west-southwest,1.9,No
2015/08/01,01:20,0.510,0.297,0.541,0.499,0.472,0.241,0.210,west-southwest,1.9,No
2015/08/01,01:30,0.510,0.301,0.539,0.493,0.469,0.241,0.211,south-southwest,2.3,No
2015/08/01,01:40,0.515,0.301,0.540,0.492,0.468,0.241,0.212,south-southwest,2.5,No
2015/08/01,01:50,0.514,0.298,0.544,0.488,0.465,0.241,0.212,south-southwest,2.1,No
2015/08/01,02:00,0.509,0.298,0.542,0.496,0.469,0.240,0.211,south-southwest,2.1,No
2015/08/01,02:10,0.509,0.300,0.537,0.495,0.471,0.240,0.213,southwest,2.2,No
2015/08/01,02:20,0.518,0.300,0.539,0.493,0.468,0.240,0.211,southwest,2.7,No
2015/08/01,02:30,0.514,0.297,0.546,0.488,0.464,0.241,0.211,west-southwest,2.5,No
2015/08/01,02:40,0.509,0.300,0.544,0.496,0.468,0.239,0.213,southwest,2.1,No
2015/08/01,02:50,0.515,0.301,0.537,0.497,0.470,0.241,0.211,south-southwest,1.6,No
2015/08/01,03:00,0.519,0.297,0.540,0.492,0.469,0.241,0.211,southwest,2.1,No
2015/08/01,03:10,0.514,0.299,0.544,0.488,0.465,0.240,0.210,west-southwest,1.7,No
2015/08/01,03:20,0.509,0.302,0.539,0.498,0.469,0.241,0.213,west,1.8,No
2015/08/01,03:30,0.516,0.298,0.538,0.496,0.474,0.242,0.210,west,1.6,No
2015/08/01,03:40,0.515,0.297,0.540,0.492,0.468,0.241,0.211,northwest,1.1,No
2015/08/01,03:50,0.511,0.301,0.545,0.489,0.464,0.241,0.212,north-northwest,0.6,No
2015/08/01,04:00,0.509,0.299,0.542,0.498,0.470,0.242,0.211,-,CALM,No
2015/08/01,04:10,0.519,0.297,0.537,0.497,0.473,0.240,0.210,north,0.7,No
2015/08/01,04:20,0.515,0.300,0.546,0.491,0.468,0.242,0.212,north-northeast,2.0,No
2015/08/01,04:30,0.510,0.300,0.546,0.491,0.465,0.240,0.211,northeast,3.1,No
2015/08/01,04:40,0.515,0.297,0.538,0.501,0.472,0.242,0.210,northeast,2.4,No
2015/08/01,04:50,0.516,0.300,0.538,0.494,0.471,0.243,0.212,north-northeast,1.5,No
2015/08/01,05:00,0.511,0.300,0.546,0.491,0.465,0.242,0.212,northeast,1.4,No
2015/08/01,05:10,0.512,0.298,0.542,0.496,0.466,0.241,0.211,northeast,1.0,No
2015/08/01,05:20,0.519,0.299,0.538,0.496,0.475,0.240,0.213,-,CALM,No
2015/08/01,05:30,0.514,0.301,0.543,0.492,0.471,0.241,0.212,south-southeast,0.5,No
2015/08/01,05:40,0.509,0.298,0.542,0.491,0.466,0.240,0.209,-,CALM,No
2015/08/01,05:50,0.513,0.296,0.538,0.499,0.462,0.241,0.210,-,CALM,No
2015/08/01,06:00,0.516,0.297,0.537,0.494,0.468,0.241,0.211,southwest,0.6,No
2015/08/01,06:10,0.511,0.298,0.544,0.488,0.470,0.238,0.211,west,2.7,No
2015/08/01,06:20,0.507,0.299,0.542,0.492,0.467,0.242,0.211,west,3.1,No
2015/08/01,06:30,0.514,0.297,0.538,0.497,0.467,0.241,0.210,west-northwest,2.3,No
2015/08/01,06:40,0.514,0.295,0.535,0.493,0.465,0.238,0.211,west-northwest,2.5,No
2015/08/01,06:50,0.510,0.296,0.540,0.487,0.463,0.240,0.210,northwest,2.8,No
2015/08/01,07:00,0.507,0.297,0.540,0.488,0.463,0.241,0.212,north-northwest,1.7,No
2015/08/01,07:10,0.516,0.297,0.542,0.488,0.464,0.241,0.210,north,1.9,No
2015/08/01,07:20,0.516,0.296,0.540,0.489,0.465,0.241,0.211,north-northwest,2.4,No
2015/08/01,07:30,0.511,0.299,0.538,0.488,0.466,0.241,0.212,north,2.4,No
2015/08/01,07:40,0.509,0.299,0.537,0.490,0.468,0.243,0.212,north-northeast,2.1,No
2015/08/01,07:50,0.508,0.300,0.538,0.492,0.466,0.243,0.212,north-northeast,3.0,No
2015/08/01,08:00,0.511,0.299,0.540,0.493,0.468,0.240,0.213,north-northeast,2.2,No
2015/08/01,08:10,0.515,0.300,0.539,0.493,0.468,0.241,0.215,north-northeast,2.3,No
2015/08/01,08:20,0.515,0.300,0.540,0.494,0.468,0.241,0.213,northeast,1.9,No
2015/08/01,08:30,0.514,0.301,0.538,0.495,0.467,0.243,0.213,north-northeast,1.0,No
2015/08/01,08:40,0.514,0.301,0.538,0.494,0.471,0.242,0.215,north-northeast,2.2,No
2015/08/01,08:50,0.513,0.301,0.538,0.496,0.470,0.242,0.214,north-northeast,1.7,No
2015/08/01,09:00,0.514,0.302,0.537,0.498,0.472,0.242,0.216,north,2.8,No
2015/08/01,09:10,0.514,0.304,0.538,0.499,0.473,0.241,0.215,east,1.3,No
2015/08/01,09:20,0.516,0.303,0.537,0.500,0.473,0.242,0.216,southeast,2.0,No
2015/08/01,09:30,0.515,0.302,0.540,0.499,0.472,0.242,0.215,southeast,2.4,No
2015/08/01,09:40,0.516,0.302,0.540,0.499,0.471,0.243,0.215,southeast,3.3,No
2015/08/01,09:50,0.515,0.302,0.540,0.498,0.475,0.242,0.216,south,3.5,No
2015/08/01,10:00,0.517,0.300,0.540,0.499,0.473,0.244,0.216,south,3.4,No
2015/08/01,10:10,0.517,0.301,0.541,0.499,0.474,0.245,0.215,south,3.7,No
2015/08/01,10:20,0.518,0.301,0.539,0.499,0.473,0.245,0.216,south,3.0,No
2015/08/01,10:30,0.518,0.300,0.542,0.500,0.474,0.246,0.215,south,3.6,No
2015/08/01,10:40,0.518,0.300,0.545,0.499,0.471,0.245,0.215,south,2.9,No
2015/08/01,10:50,0.516,0.300,0.545,0.498,0.469,0.244,0.216,south,3.7,No
2015/08/01,11:00,0.516,0.299,0.545,0.500,0.470,0.244,0.216,south,3.4,No
2015/08/01,11:10,0.518,0.298,0.547,0.499,0.472,0.245,0.215,south,2.8,No
2015/08/01,11:20,0.517,0.300,0.549,0.499,0.469,0.244,0.215,south,3.1,No
2015/08/01,11:30,0.515,0.300,0.551,0.499,0.470,0.244,0.215,south-southeast,3.5,No
2015/08/01,11:40,0.514,0.299,0.548,0.499,0.466,0.244,0.215,south-southeast,3.3,No
2015/08/01,11:50,0.515,0.298,0.549,0.497,0.467,0.244,0.215,southeast,3.6,No
2015/08/01,12:00,0.515,0.298,0.548,0.499,0.467,0.243,0.215,south-southeast,3.1,No
2015/08/01,12:10,0.512,0.298,0.546,0.498,0.465,0.244,0.216,south-southeast,1.9,No
2015/08/01,12:20,0.512,0.300,0.547,0.498,0.466,0.244,0.215,south-southeast,3.1,No
2015/08/01,12:30,0.512,0.298,0.545,0.495,0.468,0.244,0.214,south-southeast,3.2,No
2015/08/01,12:40,0.509,0.300,0.542,0.498,0.465,0.242,0.214,south-southeast,4.4,No
2015/08/01,12:50,0.512,0.298,0.543,0.498,0.465,0.243,0.213,south-southeast,4.7,No
2015/08/01,13:00,0.511,0.298,0.542,0.495,0.465,0.243,0.213,south,4.9,No
2015/08/01,13:10,0.512,0.299,0.546,0.496,0.464,0.243,0.215,south-southeast,5.6,No
2015/08/01,13:20,0.514,0.297,0.544,0.496,0.465,0.245,0.214,south,5.6,No
2015/08/01,13:30,0.511,0.296,0.546,0.496,0.464,0.243,0.215,south,5.3,No
2015/08/01,13:40,0.514,0.297,0.546,0.496,0.463,0.244,0.215,south,5.3,No
2015/08/01,13:50,0.512,0.297,0.542,0.496,0.463,0.244,0.216,south,5.1,No
2015/08/01,14:00,0.514,0.297,0.543,0.498,0.464,0.244,0.215,south-southeast,4.2,No
2015/08/01,14:10,0.514,0.297,0.542,0.496,0.463,0.244,0.214,south,3.7,No
2015/08/01,14:20,0.515,0.298,0.543,0.496,0.464,0.243,0.215,south,3.9,No
2015/08/01,14:30,0.515,0.297,0.541,0.496,0.464,0.244,0.212,south,5.2,No
2015/08/01,14:40,0.517,0.298,0.543,0.497,0.462,0.242,0.213,south,4.2,No
2015/08/01,14:50,0.516,0.297,0.542,0.494,0.462,0.242,0.213,south,5.4,No
2015/08/01,15:00,0.517,0.297,0.542,0.496,0.461,0.244,0.213,south,5.5,No
2015/08/01,15:10,0.514,0.297,0.542,0.493,0.462,0.242,0.212,south-southeast,5.6,No
2015/08/01,15:20,0.513,0.295,0.542,0.493,0.460,0.242,0.211,south,6.7,No
2015/08/01,15:30,0.514,0.296,0.537,0.491,0.460,0.241,0.211,south,6.2,No
2015/08/01,15:40,0.511,0.297,0.537,0.490,0.460,0.242,0.211,south,6.6,No
2015/08/01,15:50,0.512,0.298,0.534,0.489,0.461,0.241,0.211,south,5.7,No
2015/08/01,16:00,0.513,0.296,0.536,0.488,0.459,0.240,0.209,south,6.7,No
2015/08/01,16:10,0.511,0.296,0.533,0.487,0.458,0.240,0.210,south,6.7,No
2015/08/01,16:20,0.510,0.295,0.535,0.488,0.458,0.240,0.210,south-southeast,5.6,No
2015/08/01,16:30,0.509,0.294,0.534,0.488,0.460,0.240,0.210,south,5.8,No
2015/08/01,16:40,0.512,0.296,0.532,0.489,0.460,0.239,0.210,south,7.8,No
2015/08/01,16:50,0.510,0.294,0.535,0.489,0.461,0.239,0.209,south,7.6,No
2015/08/01,17:00,0.509,0.294,0.535,0.488,0.460,0.239,0.210,south,8.3,No
2015/08/01,17:10,0.509,0.295,0.535,0.488,0.461,0.239,0.212,south,8.5,No
2015/08/01,17:20,0.508,0.295,0.536,0.488,0.460,0.239,0.211,south,8.0,No
2015/08/01,17:30,0.509,0.295,0.535,0.495,0.463,0.240,0.211,south,7.3,No
2015/08/01,17:40,0.518,0.299,0.537,0.497,0.462,0.239,0.210,south,8.4,No
2015/08/01,17:50,0.518,0.301,0.544,0.493,0.461,0.241,0.211,south,8.2,No
2015/08/01,18:00,0.515,0.297,0.545,0.494,0.462,0.243,0.213,south,7.0,No
2015/08/01,18:10,0.511,0.296,0.540,0.491,0.463,0.242,0.212,south,7.2,No
2015/08/01,18:20,0.511,0.297,0.538,0.496,0.459,0.240,0.211,south,7.0,No
2015/08/01,18:30,0.517,0.299,0.538,0.497,0.461,0.241,0.210,south,6.1,No
2015/08/01,18:40,0.518,0.299,0.546,0.495,0.468,0.241,0.213,south,5.9,No
2015/08/01,18:50,0.515,0.297,0.545,0.492,0.471,0.242,0.212,south,5.0,No
2015/08/01,19:00,0.510,0.298,0.543,0.494,0.468,0.240,0.209,south,5.6,No
2015/08/01,19:10,0.519,0.300,0.537,0.500,0.465,0.241,0.211,south,5.6,No
2015/08/01,19:20,0.516,0.299,0.542,0.497,0.465,0.242,0.213,south,5.2,No
2015/08/01,19:30,0.515,0.297,0.544,0.493,0.470,0.241,0.211,south,4.5,No
2015/08/01,19:40,0.511,0.299,0.544,0.491,0.468,0.240,0.211,south-southwest,4.0,No
2015/08/01,19:50,0.520,0.301,0.540,0.498,0.465,0.242,0.213,south,4.5,No
2015/08/01,20:00,0.517,0.300,0.539,0.497,0.463,0.241,0.212,south-southwest,4.9,No
2015/08/01,20:10,0.512,0.296,0.547,0.492,0.469,0.241,0.211,south-southwest,4.9,No
2015/08/01,20:20,0.511,0.298,0.546,0.490,0.471,0.242,0.212,south-southwest,4.3,No
2015/08/01,20:30,0.520,0.300,0.540,0.498,0.469,0.241,0.213,south-southwest,4.0,No
2015/08/01,20:40,0.517,0.299,0.539,0.499,0.464,0.241,0.214,southwest,2.3,No
2015/08/01,20:50,0.512,0.297,0.544,0.494,0.467,0.241,0.211,southwest,2.3,No
2015/08/01,21:00,0.510,0.299,0.543,0.491,0.472,0.241,0.212,southwest,0.8,No
2015/08/01,21:10,0.519,0.301,0.543,0.498,0.468,0.242,0.213,southwest,1.0,No
2015/08/01,21:20,0.517,0.298,0.539,0.500,0.464,0.242,0.212,south-southwest,1.0,No
2015/08/01,21:30,0.513,0.298,0.544,0.497,0.468,0.240,0.211,west-northwest,0.5,No
2015/08/01,21:40,0.511,0.300,0.548,0.491,0.476,0.241,0.213,northwest,0.5,No
2015/08/01,21:50,0.520,0.301,0.543,0.496,0.470,0.243,0.213,-,CALM,No
2015/08/01,22:00,0.516,0.299,0.540,0.499,0.466,0.242,0.213,-,CALM,No
2015/08/01,22:10,0.512,0.298,0.544,0.496,0.465,0.242,0.211,north-northwest,0.7,No
2015/08/01,22:20,0.511,0.302,0.546,0.491,0.472,0.242,0.214,north-northwest,0.8,No
2015/08/01,22:30,0.518,0.302,0.544,0.497,0.469,0.242,0.213,north,1.4,No
2015/08/01,22:40,0.517,0.298,0.539,0.501,0.465,0.242,0.212,north-northeast,1.6,No
2015/08/01,22:50,0.514,0.299,0.544,0.496,0.467,0.242,0.214,north,1.5,No
2015/08/01,23:00,0.514,0.302,0.546,0.492,0.474,0.243,0.213,north,2.0,No
2015/08/01,23:10,0.521,0.300,0.545,0.494,0.473,0.243,0.213,north,1.8,No
2015/08/01,23:20,0.519,0.298,0.539,0.502,0.468,0.242,0.213,north,1.9,No
2015/08/01,23:30,0.513,0.301,0.544,0.498,0.467,0.243,0.215,north-northeast,1.6,No
2015/08/01,23:40,0.515,0.302,0.548,0.493,0.475,0.242,0.214,north-northeast,1.9,No
2015/08/01,23:50,0.522,0.300,0.547,0.496,0.472,0.242,0.214,north,2.1,No
